This is the latest recevied weather packets stored in our database for station/object AE5PL. If no packets are shown the sender has not sent any weather packets the latest 10 day(s).
| Time | Temp. | Humidity | Pressure | Rain* | Wind** | Luminosity | Snow |
|---|---|---|---|---|---|---|---|
| 1777735904 | 18.89° C | 42% | 1022.2 hPa | - | - | - | - |
| 1777735604 | 18.89° C | 40% | 1022.2 hPa | - | - | - | - |
| 1777735304 | 19.44° C | 44% | 1022.2 hPa | - | - | - | - |
| 1777735004 | 18.89° C | 43% | 1022.2 hPa | - | - | - | - |
| 1777734704 | 18.89° C | 48% | 1022.2 hPa | - | - | - | - |
| 1777734404 | 18.33° C | 48% | 1022.2 hPa | - | - | - | - |
| 1777734104 | 18.33° C | 46% | 1022.2 hPa | - | - | - | - |
| 1777733804 | 18.33° C | 49% | 1022.2 hPa | - | - | - | - |
| 1777733504 | 17.78° C | 51% | 1022.1 hPa | - | - | - | - |
| 1777733204 | 17.78° C | 51% | 1022.1 hPa | - | - | - | - |
| 1777732904 | 17.78° C | 53% | 1022.1 hPa | - | - | - | - |
| 1777732604 | 17.22° C | 54% | 1022.1 hPa | - | - | - | - |
| 1777732304 | 17.22° C | 56% | 1022.1 hPa | - | - | - | - |
| 1777732004 | 16.67° C | 57% | 1022.1 hPa | - | - | - | - |
| 1777731704 | 16.67° C | 59% | 1022 hPa | - | - | - | - |
| 1777731404 | 16.11° C | 62% | 1022 hPa | - | - | - | - |
| 1777731104 | 16.11° C | 66% | 1021.9 hPa | - | - | - | - |
| 1777730804 | 15.56° C | 64% | 1022 hPa | - | - | - | - |
| 1777730504 | 15.56° C | 65% | 1021.9 hPa | - | - | - | - |
| 1777730204 | 15° C | 66% | 1022 hPa | - | - | - | - |
| 1777729904 | 15° C | 66% | 1021.9 hPa | - | - | - | - |
| 1777729604 | 15° C | 69% | 1021.8 hPa | - | - | - | - |
| 1777729304 | 14.44° C | 71% | 1021.8 hPa | - | - | - | - |
| 1777729004 | 14.44° C | 71% | 1021.7 hPa | - | - | - | - |
| 1777728704 | 14.44° C | 71% | 1021.5 hPa | - | - | - | - |
* Rain since midnight (hover to see other rain measurements)
** Current wind speed in m/s (hover to see current wind gust speed)